Weather History for Nantucket, MA

Change the Weather History Date:

Thursday, November 18, 2010

  Actual Average Record
Temperature  
Mean Temperature 49 °F -  
Max Temperature 53 °F 53 °F 65 °F (1978)
Min Temperature 45 °F 38 °F 24 °F (1972)
Degree Days  
Heating Degree Days 16    
Moisture  
Dew Point 34 °F    
Average Humidity 57    
Maximum Humidity 68    
Minimum Humidity 50    
Precipitation  
Precipitation 0.00 in - - ()
Sea Level Pressure  
Sea Level Pressure 29.94 in    
Wind  
Wind Speed 20 mph (West)    
Max Wind Speed 26 mph    
Max Gust Speed 41 mph    
Visibility 10 miles    
Events      
Averages and records for this station are not official NWS values.
T = Trace of Precipitation, MM = Missing Value Source: NWS Daily Summary

Daily Weather History Graph

Daily Weather History Graph

Search for Another Location

Airport:

Trip Planner

Search our weather history database for the weather conditions in past years. The results will help you decide how hot, cold, wet, or windy it might be!

Date:

Astronomy

Nov. 18, 2010 Rise Set
Actual Time 6:31 AM EST 4:18 PM EST
Civil Twilight 6:01 AM EST 4:48 PM EST
Nautical Twilight 5:28 AM EST 5:22 PM EST
Astronomical Twilight 4:55 AM EST 5:54 PM EST
Moon 2:17 PM EST (11/18) 3:24 AM EST (11/18)
Length of Visible Light 10h 46m
Length of Day
9h 46m
Waxing Gibbous, 91% of the Moon is Illuminated
Nov 18
Waxing Gibbous
Nov 21
Full
Nov 28
Last Quarter
Dec 5
New
Dec 13
First Quarter

Hourly Weather History & Observations

Time (EST) Temp. Windchill Dew Point Humidity Pressure Visibility Wind Dir Wind Speed Gust Speed Precip Events Conditions
12:53 AM 51.1 °F - 37.0 °F 59% 29.75 in 10.0 mi West 26.5 mph 41.4 mph N/A   Clear
1:53 AM 50.0 °F - 36.0 °F 59% 29.79 in 10.0 mi West 25.3 mph 38.0 mph N/A   Partly Cloudy
2:53 AM 48.9 °F - 33.1 °F 54% 29.83 in 10.0 mi West 18.4 mph 38.0 mph N/A   Clear
3:53 AM 48.9 °F - 33.1 °F 54% 29.85 in 10.0 mi West 21.9 mph 39.1 mph N/A   Clear
4:53 AM 48.0 °F - 32.0 °F 54% 29.88 in 10.0 mi West 20.7 mph 28.8 mph N/A   Clear
5:53 AM 46.9 °F - 32.0 °F 56% 29.91 in 10.0 mi West 17.3 mph 27.6 mph N/A   Clear
6:53 AM 46.9 °F - 32.0 °F 56% 29.94 in 10.0 mi West 19.6 mph 25.3 mph N/A   Clear
7:53 AM 48.9 °F - 33.1 °F 54% 29.98 in 10.0 mi West 23.0 mph 29.9 mph N/A   Clear
8:53 AM 51.1 °F - 35.1 °F 54% 29.99 in 10.0 mi West 21.9 mph 29.9 mph N/A   Clear
9:53 AM 52.0 °F - 34.0 °F 50% 29.99 in 10.0 mi West 25.3 mph 29.9 mph N/A   Clear
11:53 AM 53.1 °F - 36.0 °F 52% 29.95 in 10.0 mi West 23.0 mph 32.2 mph N/A   Clear
12:53 PM 52.0 °F - 35.1 °F 53% 29.95 in 10.0 mi West 21.9 mph 31.1 mph N/A   Clear
1:53 PM 52.0 °F - 36.0 °F 54% 29.94 in 10.0 mi West 23.0 mph 27.6 mph N/A   Clear
2:53 PM 51.1 °F - 35.1 °F 54% 29.94 in 10.0 mi West 15.0 mph 24.2 mph N/A   Clear
3:53 PM 50.0 °F - 35.1 °F 57% 29.96 in 10.0 mi West 12.7 mph - N/A   Clear
4:53 PM 48.9 °F - 35.1 °F 59% 29.97 in 10.0 mi West 13.8 mph 20.7 mph N/A   Clear
5:53 PM 48.9 °F - 35.1 °F 59% 29.98 in 10.0 mi West 12.7 mph - N/A   Clear
6:53 PM 48.9 °F - 35.1 °F 59% 29.99 in 10.0 mi West 10.4 mph - N/A   Clear
7:53 PM 48.0 °F - 35.1 °F 61% 29.99 in 10.0 mi West 9.2 mph - N/A   Clear
8:53 PM 46.9 °F - 36.0 °F 66% 29.99 in 10.0 mi West 9.2 mph - N/A   Clear
9:53 PM 46.9 °F - 34.0 °F 61% 29.99 in 10.0 mi West 9.2 mph - N/A   Partly Cloudy
10:53 PM 45.0 °F 40.6 °F 35.1 °F 68% 30.00 in 10.0 mi WNW 8.1 mph - N/A   Overcast
11:53 PM 46.0 °F 41.4 °F 33.1 °F 61% 30.00 in 10.0 mi NW 9.2 mph - N/A   Mostly Cloudy